Volver al catálogo

STARLINK-6192

ActivoComunicacionesVLEO
NORAD 56903·PAYLOAD·🇺🇸 United States

Lanzado Jun 12, 2023 desde Cape Canaveral Space Force Station

Loading…

Próximos Pases (próximas 24 horas)

TLE

ActualizadoSource: CelesTrak SupGP

Época: Sep 14, 2026, 13:31 UTC

1 56903C 23083AD  26257.56368056  .00007949  00000+0  28791-3 0  2575
2 56903  43.0018  94.9181 0001427 256.9526 279.6978 15.27573409    14

Sigue STARLINK-6192 en tiempo real con AllMySat

Download on the App Store